When you browse on this site, cookies collect data to enhance your experience and personalize the content and advertising you see.
Visit our Privacy Policy to learn more. By continuing to use the site, you agree to this use of cookies and data.
  • Em Portugal
  • Lista de países
  • Para 7 dias
  • Temperatura da água
  • Mapa do tempo
  • Widgets de tempo
  • user-avatar
    Iniciar Sessão

    Previsão horária em Lykovschina

    Hoje, 25 Agosto, Domingo

    Tempo Temperatura Precipitação Vento Pressão Humidade
    00:00 +15°C° 0 mm 2 m/s 751 mmHg 71%
    01:00 +14°C° 0 mm 2 m/s 751 mmHg 74%
    02:00 +13°C° 0 mm 3 m/s 750 mmHg 76%
    03:00 +13°C° 0 mm 3 m/s 750 mmHg 78%
    04:00 +13°C° 0 mm 3 m/s 750 mmHg 81%
    05:00 +13°C° 0 mm 3 m/s 750 mmHg 84%
    06:00 +13°C° 0 mm 3 m/s 750 mmHg 86%
    07:00 +14°C° 0 mm 4 m/s 750 mmHg 83%
    08:00 +17°C° 0 mm 4 m/s 750 mmHg 79%
    09:00 +17°C° 0 mm 5 m/s 751 mmHg 75%
    10:00 +19°C° 0 mm 5 m/s 751 mmHg 70%
    11:00 +20°C° 0 mm 5 m/s 751 mmHg 65%
    12:00 +20°C° 0 mm 6 m/s 751 mmHg 60%
    13:00 +19°C° 0 mm 6 m/s 751 mmHg 63%
    14:00 +18°C° 0 mm 7 m/s 751 mmHg 66%
    15:00 +17°C° 0 mm 7 m/s 752 mmHg 69%
    16:00 +16°C° 0 mm 6 m/s 752 mmHg 72%
    17:00 +16°C° 0 mm 5 m/s 752 mmHg 74%
    18:00 +15°C° 0 mm 4 m/s 752 mmHg 77%
    19:00 +14°C° 0 mm 4 m/s 753 mmHg 81%
    20:00 +14°C° 0 mm 4 m/s 753 mmHg 85%
    21:00 +13°C° 0 mm 3 m/s 754 mmHg 88%
    22:00 +12°C° 0 mm 3 m/s 754 mmHg 90%
    23:00 +11°C° 0 mm 3 m/s 754 mmHg 91%

    Amanhã, 26 Agosto, Segunda-feira

    Tempo Temperatura Precipitação Vento Pressão Humidade
    00:00 +11°C° 0 mm 3 m/s 754 mmHg 92%
    01:00 +10°C° 0 mm 2 m/s 755 mmHg 93%
    02:00 +10°C° 0 mm 2 m/s 755 mmHg 94%
    03:00 +9°C° 0 mm 2 m/s 755 mmHg 95%
    04:00 +9°C° 0 mm 2 m/s 755 mmHg 96%
    05:00 +9°C° 0 mm 2 m/s 755 mmHg 96%
    06:00 +9°C° 0 mm 2 m/s 756 mmHg 96%
    07:00 +12°C° 0 mm 2 m/s 756 mmHg 89%
    08:00 +13°C° 0 mm 2 m/s 756 mmHg 82%
    09:00 +15°C° 0 mm 2 m/s 756 mmHg 75%
    10:00 +16°C° 0 mm 3 m/s 756 mmHg 70%
    11:00 +17°C° 0 mm 3 m/s 756 mmHg 65%
    12:00 +18°C° 0 mm 3 m/s 756 mmHg 60%
    13:00 +18°C° 0 mm 3 m/s 755 mmHg 59%
    14:00 +19°C° 0 mm 3 m/s 755 mmHg 57%
    15:00 +19°C° 0 mm 3 m/s 755 mmHg 56%
    16:00 +19°C° 0 mm 2 m/s 755 mmHg 61%
    17:00 +18°C° 0 mm 2 m/s 754 mmHg 65%
    18:00 +18°C° 0 mm 2 m/s 754 mmHg 70%
    19:00 +16°C° 0 mm 2 m/s 754 mmHg 73%
    20:00 +15°C° 0 mm 2 m/s 753 mmHg 76%
    21:00 +14°C° 0 mm 2 m/s 753 mmHg 80%
    22:00 +14°C° 0 mm 2 m/s 753 mmHg 81%
    23:00 +13°C° 0 mm 2 m/s 753 mmHg 83%

    Depois de amanhã, 27 Agosto, Terça-feira

    Tempo Temperatura Precipitação Vento Pressão Humidade
    00:00 +12°C° 0 mm 3 m/s 752 mmHg 84%
    01:00 +12°C° 0 mm 3 m/s 752 mmHg 84%
    02:00 +12°C° 0 mm 3 m/s 751 mmHg 84%
    03:00 +12°C° 0 mm 4 m/s 751 mmHg 84%
    04:00 +12°C° 0 mm 4 m/s 750 mmHg 82%
    05:00 +12°C° 0 mm 4 m/s 749 mmHg 81%
    06:00 +13°C° 0 mm 5 m/s 749 mmHg 79%
    07:00 +14°C° 0 mm 5 m/s 748 mmHg 77%
    08:00 +15°C° 0 mm 6 m/s 748 mmHg 75%
    09:00 +16°C° 0 mm 7 m/s 747 mmHg 73%
    10:00 +16°C° 0.4 mm 6 m/s 747 mmHg 75%
    11:00 +17°C° 0.4 mm 6 m/s 746 mmHg 77%
    12:00 +17°C° 0.4 mm 6 m/s 746 mmHg 78%
    13:00 +19°C° 1 mm 6 m/s 745 mmHg 76%
    14:00 +19°C° 1 mm 6 m/s 745 mmHg 74%
    15:00 +20°C° 1 mm 7 m/s 744 mmHg 72%
    16:00 +19°C° 2.1 mm 6 m/s 744 mmHg 76%
    17:00 +17°C° 2.1 mm 5 m/s 743 mmHg 80%
    18:00 +16°C° 2.1 mm 5 m/s 743 mmHg 83%
    19:00 +15°C° 0.2 mm 4 m/s 743 mmHg 86%
    20:00 +13°C° 0.2 mm 4 m/s 743 mmHg 89%
    21:00 +12°C° 0.2 mm 4 m/s 743 mmHg 92%
    22:00 +12°C° 0.1 mm 4 m/s 743 mmHg 92%
    23:00 +10°C° 0.1 mm 5 m/s 743 mmHg 92%

    28 Agosto, Quarta-feira

    Tempo Temperatura Precipitação Vento Pressão Humidade
    00:00 +10°C° 0.1 mm 5 m/s 743 mmHg 92%
    01:00 +9°C° 0.1 mm 6 m/s 743 mmHg 91%
    02:00 +7°C° 0.1 mm 6 m/s 743 mmHg 90%
    03:00 +5°C° 0.1 mm 6 m/s 744 mmHg 89%
    04:00 +5°C° 0 mm 6 m/s 744 mmHg 87%
    05:00 +5°C° 0 mm 7 m/s 744 mmHg 85%
    06:00 +5°C° 0 mm 7 m/s 744 mmHg 84%
    07:00 +5°C° 0 mm 7 m/s 745 mmHg 82%
    08:00 +6°C° 0 mm 7 m/s 745 mmHg 79%
    09:00 +6°C° 0 mm 8 m/s 745 mmHg 77%
    10:00 +6°C° 0 mm 8 m/s 745 mmHg 77%
    11:00 +6°C° 0 mm 8 m/s 745 mmHg 77%
    12:00 +6°C° 0 mm 8 m/s 746 mmHg 77%
    13:00 +6°C° 0.1 mm 8 m/s 746 mmHg 78%
    14:00 +6°C° 0.1 mm 7 m/s 746 mmHg 80%
    15:00 +6°C° 0.1 mm 7 m/s 747 mmHg 82%
    16:00 +6°C° 0 mm 7 m/s 747 mmHg 81%
    17:00 +6°C° 0 mm 7 m/s 747 mmHg 80%
    18:00 +7°C° 0 mm 6 m/s 747 mmHg 79%
    19:00 +7°C° 0 mm 6 m/s 747 mmHg 78%
    20:00 +7°C° 0 mm 6 m/s 747 mmHg 76%
    21:00 +7°C° 0 mm 6 m/s 747 mmHg 75%
    22:00 +7°C° 0 mm 6 m/s 747 mmHg 76%
    23:00 +5°C° 0 mm 6 m/s 747 mmHg 77%

    29 Agosto, Quinta-feira

    Tempo Temperatura Precipitação Vento Pressão Humidade
    00:00 +5°C° 0 mm 6 m/s 747 mmHg 78%
    01:00 +5°C° 0 mm 6 m/s 747 mmHg 78%
    02:00 +4°C° 0 mm 7 m/s 747 mmHg 79%
    03:00 +4°C° 0 mm 7 m/s 747 mmHg 80%
    04:00 +4°C° 0 mm 7 m/s 747 mmHg 80%
    05:00 +4°C° 0 mm 7 m/s 747 mmHg 81%
    06:00 +4°C° 0 mm 7 m/s 748 mmHg 82%
    07:00 +4°C° 0 mm 8 m/s 748 mmHg 79%
    08:00 +5°C° 0 mm 8 m/s 748 mmHg 77%
    09:00 +6°C° 0 mm 8 m/s 748 mmHg 74%
    10:00 +6°C° 0 mm 8 m/s 748 mmHg 75%
    11:00 +6°C° 0 mm 8 m/s 748 mmHg 75%
    12:00 +6°C° 0 mm 8 m/s 749 mmHg 75%
    13:00 +6°C° 0 mm 7 m/s 749 mmHg 76%
    14:00 +6°C° 0 mm 7 m/s 749 mmHg 76%
    15:00 +8°C° 0 mm 7 m/s 749 mmHg 77%
    16:00 +8°C° 0 mm 6 m/s 750 mmHg 77%
    17:00 +8°C° 0 mm 6 m/s 750 mmHg 77%
    18:00 +8°C° 0 mm 6 m/s 750 mmHg 77%
    19:00 +7°C° 0 mm 5 m/s 750 mmHg 79%
    20:00 +7°C° 0 mm 4 m/s 750 mmHg 82%
    21:00 +7°C° 0 mm 3 m/s 751 mmHg 84%
    22:00 +8°C° 0 mm 3 m/s 751 mmHg 83%
    23:00 +8°C° 0 mm 3 m/s 751 mmHg 82%

    30 Agosto, Sexta-feira

    Tempo Temperatura Precipitação Vento Pressão Humidade
    00:00 +8°C° 0 mm 3 m/s 751 mmHg 80%
    01:00 +7°C° 0 mm 3 m/s 751 mmHg 85%
    02:00 +5°C° 0 mm 3 m/s 751 mmHg 89%
    03:00 +5°C° 0 mm 3 m/s 751 mmHg 93%
    04:00 +4°C° 0 mm 3 m/s 751 mmHg 92%
    05:00 +4°C° 0 mm 3 m/s 751 mmHg 91%
    06:00 +4°C° 0 mm 3 m/s 751 mmHg 90%
    07:00 +6°C° 0 mm 4 m/s 751 mmHg 83%
    08:00 +7°C° 0 mm 4 m/s 751 mmHg 76%
    09:00 +9°C° 0 mm 5 m/s 750 mmHg 69%
    10:00 +10°C° 0 mm 5 m/s 750 mmHg 66%
    11:00 +12°C° 0 mm 5 m/s 750 mmHg 62%
    12:00 +13°C° 0 mm 5 m/s 750 mmHg 59%
    13:00 +13°C° 0.1 mm 5 m/s 750 mmHg 62%
    14:00 +12°C° 0.1 mm 5 m/s 749 mmHg 65%
    15:00 +12°C° 0.1 mm 5 m/s 749 mmHg 68%
    16:00 +9°C° 0.8 mm 5 m/s 749 mmHg 75%
    17:00 +8°C° 0.8 mm 4 m/s 749 mmHg 82%
    18:00 +7°C° 0.8 mm 4 m/s 750 mmHg 89%
    19:00 +7°C° 0 mm 3 m/s 750 mmHg 91%
    20:00 +5°C° 0 mm 3 m/s 750 mmHg 94%
    21:00 +4°C° 0 mm 3 m/s 750 mmHg 96%
    22:00 +4°C° 0 mm 3 m/s 750 mmHg 95%
    23:00 +4°C° 0 mm 3 m/s 750 mmHg 94%
    Mostrar mais